Dewpoint
-11 -11 -13 -15 -12 -9 -7 -8 -9 -7 -5 -4 -5 -5 -4 -4 -4 -4 -3 -0 -0 -3 -1 0 -0 -0 -1 -1 -1 -1 1 6 9 9 10 12 12 13 13 14 14 13 13 13 12 13 14 13 13 14 15 14 12 14 15 12 12 13 14 13 14 15 14
-11 -11 -12 -14 -13 -10 -9 -8 -8 -7 -6 -4 -4 -5 -4 -2 -3 -5 -5 -2 -2 -4 -2 -1 -2 -3 -3 -3 -3 -4 -3 4 9 9 10 11 11 12 13 14 14 12 10 9 9 12 13 14 13 12 12 12 11 11 12 12 11 12 13 13 13 14 13
-12 -11 -11 -12 -14 -12 -9 -8 -7 -7 -5 -3 -3 -4 -4 -3 -2 -3 -5 -4 -3 -5 -4 -3 -2 -3 -4 -4 -3 -4 -5 2 8 9 10 11 11 12 13 14 14 13 10 8 8 11 12 13 14 12 10 10 11 10 10 11 12 11 11 13 13 11 11
-11 -11 -12 -13 -12 -12 -11 -9 -8 -6 -5 -4 -4 -4 -3 -4 -3 -3 -5 -5 -5 -4 -3 -3 -1 -1 -2 -4 -3 -4 -6 0 7 8 9 11 11 12 12 13 14 14 12 9 9 11 12 13 14 12 11 11 12 12 10 11 13 12 11 14 14 10 9
-11 -12 -12 -13 -13 -10 -11 -11 -9 -8 -7 -5 -5 -4 -5 -4 -4 -4 -4 -5 -6 -4 -2 -2 -2 -2 -2 -2 -3 -3 -4 -5 1 6 9 10 12 12 12 13 14 14 13 11 10 11 11 13 14 13 13 14 14 14 13 12 13 14 14 14 13 9 8
-13 -13 -13 -13 -14 -12 -11 -12 -10 -9 -7 -6 -4 -4 -5 -6 -5 -5 -5 -6 -6 -5 -2 -2 -2 -2 -4 -4 -4 -5 -4 -6 -7 3 9 10 12 13 13 13 13 13 13 12 11 11 12 12 14 14 14 14 15 15 15 15 15 16 16 16 13 8 7
-11 -13 -13 -13 -14 -15 -13 -11 -10 -9 -8 -7 -6 -5 -5 -6 -6 -6 -6 -6 -6 -5 -2 -2 -3 -3 -6 -5 -3 -5 -5 -5 -9 -0 8 10 12 13 13 13 13 12 13 13 12 13 13 13 14 14 14 15 15 15 16 17 17 16 17 17 15 9 6
-8 -10 -13 -14 -14 -16 -15 -13 -11 -11 -10 -8 -7 -5 -4 -5 -7 -7 -5 -5 -6 -3 1 1 -1 -2 -4 -7 -5 -5 -3 0 -1 4 10 11 12 14 13 12 13 12 12 13 13 14 15 15 14 13 14 15 15 16 16 17 18 17 16 17 17 12 5
-4 -5 -7 -10 -12 -13 -14 -16 -14 -11 -11 -9 -7 -6 -4 -4 -5 -5 -4 -6 -6 -2 1 2 0 -2 -4 -5 -4 -4 -0 4 3 8 12 11 11 14 14 12 13 12 12 13 13 15 16 15 13 12 12 14 15 16 17 17 17 18 17 17 17 16 12
-3 -3 -5 -8 -10 -11 -11 -13 -14 -14 -12 -11 -8 -7 -5 -4 -3 -3 -4 -6 -5 -2 -2 -1 -2 -4 -4 -3 -3 -6 -1 5 6 10 13 11 12 14 14 13 13 13 14 15 14 14 14 14 13 11 11 12 14 16 17 17 17 18 18 17 17 18 17
-4 -4 -4 -5 -7 -8 -10 -12 -13 -13 -14 -13 -10 -8 -7 -4 -4 -4 -1 -1 -4 -4 -2 -1 -3 -4 -4 -3 -4 -6 -4 3 9 12 13 12 13 14 14 15 15 15 16 16 15 14 12 12 12 12 12 12 13 14 15 16 17 17 17 18 18 17 16
-3 -4 -3 -5 -6 -7 -9 -10 -12 -13 -13 -14 -12 -11 -9 -5 -5 -5 1 3 -2 -4 -3 -2 -3 -2 -3 -4 -4 -6 -6 -4 4 11 12 11 13 14 15 15 15 16 18 17 15 14 12 12 12 13 13 13 13 12 12 13 15 15 16 17 18 16 15
-3 -5 -5 -6 -6 -6 -7 -8 -10 -13 -13 -12 -11 -12 -11 -7 -6 -6 0 3 -0 -3 -3 -5 -3 -3 -4 -3 -5 -7 -4 -9 -4 10 14 12 13 14 15 14 12 14 17 17 15 14 12 12 13 13 13 13 12 12 12 11 12 14 15 16 16 16 17
-1 -3 -4 -5 -6 -6 -7 -8 -8 -10 -11 -11 -10 -10 -12 -10 -7 -7 -4 1 0 -2 -4 -5 -3 -5 -6 -5 -7 -8 -5 -9 -4 10 14 13 12 13 13 11 10 10 12 13 14 14 12 12 13 13 12 12 11 11 11 10 11 13 15 16 17 19 19
1 -0 -1 -3 -4 -5 -7 -8 -7 -9 -9 -11 -12 -11 -11 -9 -7 -9 -9 -3 -2 -3 -3 -4 -5 -5 -6 -6 -7 -7 -5 -6 -3 8 12 12 12 13 10 9 11 12 9 9 12 12 10 10 12 12 12 11 11 12 12 12 12 14 16 18 19 19 20
2 0 -0 -2 -3 -5 -7 -8 -7 -8 -9 -10 -12 -11 -9 -9 -8 -7 -7 -7 -6 -6 -3 -4 -6 -6 -4 -5 -5 -7 -6 -3 2 8 12 13 13 14 13 11 13 14 10 8 9 9 8 11 13 12 12 11 12 14 16 16 16 17 18 19 19 19 20
2 0 -1 -2 -3 -3 -5 -7 -8 -8 -9 -9 -9 -10 -10 -9 -9 -7 -8 -9 -8 -6 -6 -6 -6 -6 -6 -7 -6 -5 1 8 11 11 13 13 14 15 15 15 15 15 15 15 14 13 15 16 16 14 15 15 15 17 18 18 19 19 19 19 20 19 20
2 1 -0 -1 -1 -2 -3 -6 -8 -7 -9 -9 -9 -10 -10 -8 -8 -8 -7 -6 -5 -5 -6 -6 -6 -5 -2 0 3 6 8 10 11 11 11 13 15 15 15 16 16 15 16 16 15 15 17 18 17 18 19 18 17 17 17 17 17 18 18 19 19 19 19
2 2 2 3 2 -0 -2 -5 -8 -8 -8 -9 -8 -7 -10 -9 -9 -7 -5 -5 -4 -5 -5 -4 -2 3 7 8 8 8 7 7 8 9 10 12 14 14 15 16 16 15 15 15 15 15 17 17 17 17 17 17 16 17 16 15 15 16 16 17 19 19 18
3 3 3 3 3 0 -3 -2 -3 -6 -7 -8 -9 -8 -8 -9 -9 -7 -7 -6 -5 -5 -5 -0 5 7 9 9 8 7 5 7 8 8 8 11 12 13 13 13 13 13 14 14 13 14 14 15 15 15 15 16 17 17 15 12 12 12 12 15 16 16 15
4 4 3 2 3 2 -1 1 1 0 0 1 -1 -4 -6 -7 -8 -7 -6 -5 -5 -9 -6 4 8 7 6 6 6 7 8 9 9 8 9 11 12 13 14 13 12 12 12 12 12 12 12 11 11 12 14 16 15 13 10 6 4 6 8 10 12 13 14
4 4 5 5 4 3 3 5 6 5 5 6 7 3 -2 -5 -7 -8 -7 -4 -4 -5 1 7 7 6 5 3 3 8 11 11 10 9 9 11 12 13 14 13 12 11 12 12 10 11 13 11 8 8 10 9 7 4 3 1 1 3 5 7 10 13 14
4 4 6 6 5 5 8 8 7 6 5 6 7 3 -2 -3 -1 -3 -4 -3 -3 -1 5 8 8 6 2 -2 3 11 13 12 11 11 10 11 13 14 14 12 12 12 13 12 12 13 13 9 5 4 3 3 2 2 2 3 3 4 5 7 9 10 10
4 5 6 5 5 7 9 8 6 6 6 7 6 2 -2 1 4 4 3 1 3 6 7 7 7 5 2 2 9 12 13 14 14 13 13 13 13 14 14 14 13 12 11 12 13 13 10 5 3 3 3 3 3 4 4 5 5 5 6 7 7 7 8
4 5 5 5 5 8 9 7 6 6 6 6 4 2 5 9 9 8 7 5 6 8 8 6 7 10 11 12 13 13 13 15 15 15 14 14 15 15 15 13 11 10 10 11 11 9 5 4 5 5 5 6 6 5 6 5 5 6 6 6 7 6 7
3 4 5 5 6 8 8 7 6 6 6 6 6 7 11 12 10 9 8 7 7 9 8 9 11 13 13 13 13 14 14 15 15 15 15 15 15 14 12 11 11 11 10 8 7 6 6 7 7 7 7 7 7 6 5 5 5 5 5 6 6 6 9
4 5 7 7 8 9 8 7 8 7 7 8 10 11 11 11 10 10 10 9 10 11 11 12 12 12 12 13 13 14 14 13 14 14 13 13 13 11 8 8 10 11 9 7 7 7 8 8 7 7 7 7 6 5 4 3 4 3 4 6 6 7 10
5 5 7 9 9 9 8 8 10 10 9 10 10 10 10 10 11 12 11 11 11 11 11 11 10 10 11 11 12 12 11 11 11 11 10 9 8 8 8 8 8 8 6 6 6 7 8 8 8 8 7 6 6 6 6 5 6 5 6 7 7 10 13
6 6 8 9 9 8 7 8 9 9 8 9 9 9 9 10 10 10 10 11 11 11 11 11 10 11 11 11 11 11 10 11 11 10 10 9 8 8 8 8 8 7 6 5 5 6 6 6 7 7 7 6 7 7 8 8 8 8 9 8 9 12 14
8 8 9 9 9 9 8 7 7 7 8 9 9 10 10 10 10 11 11 11 10 11 12 11 11 11 12 12 12 12 12 12 11 9 9 10 10 9 7 7 8 9 7 5 5 6 5 5 5 5 5 5 6 8 8 8 9 10 11 10 9 12 13
8 8 9 9 9 10 9 7 7 8 8 8 9 10 10 10 11 11 12 13 12 12 13 13 12 12 12 13 13 13 13 13 12 9 7 8 8 7 5 4 6 7 6 5 4 4 4 5 6 6 5 4 6 9 10 10 12 12 12 11 11 12 14
8 9 10 9 9 10 9 8 8 8 8 8 8 9 9 9 10 10 11 11 12 12 12 13 13 13 13 12 12 12 13 13 12 10 8 8 7 6 5 4 4 5 5 5 4 4 5 5 6 7 7 6 7 10 13 14 15 14 13 13 14 15 15
10 11 10 8 8 9 9 9 9 9 9 8 8 8 7 7 7 8 8 8 9 10 10 10 10 11 11 11 10 9 10 12 12 11 10 9 7 6 5 4 3 4 4 3 3 4 5 6 7 8 8 9 11 14 16 17 16 15 14 15 16 16 16
9 10 10 9 10 11 10 9 9 9 9 8 7 8 8 7 6 6 6 7 7 7 7 7 6 7 8 8 7 6 7 8 9 10 9 8 7 7 6 4 4 4 3 3 4 4 5 6 7 8 9 11 14 16 17 17 17 16 16 16 16 16 16
9 10 10 10 11 12 10 8 7 8 8 8 8 8 7 7 7 7 6 6 7 7 7 7 6 6 7 6 4 4 5 5 6 7 7 7 8 8 7 5 4 4 4 4 4 5 6 7 7 8 10 12 14 16 17 18 17 17 17 16 16 15 15
9 10 10 10 10 11 10 8 6 6 6 6 7 7 7 6 6 7 7 7 7 6 6 6 6 6 7 6 4 2 2 1 2 3 4 5 7 8 7 5 5 5 6 7 7 6 7 7 8 10 11 12 14 15 17 18 18 17 17 16 15 14 14
10 10 10 10 10 10 9 8 7 6 6 5 5 5 5 4 4 3 4 6 6 6 5 5 4 4 4 5 5 4 3 1 -0 -1 -0 1 3 5 5 5 5 5 6 7 8 8 10 11 11 11 12 12 13 15 16 17 16 16 15 15 15 14 14
Wind_Speed
19 19 19 20 17 10 10 13 15 14 14 13 12 13 11 10 12 11 9 8 9 10 9 10 13 13 13 13 14 16 17 16 17 18 21 24 26 28 31 33 35 36 37 39 41 39 38 39 40 40 39 41 42 40 39 40 38 36 35 34 32 31 32
20 20 20 21 20 15 9 11 15 14 14 13 12 12 10 11 12 10 10 12 11 10 8 11 16 18 17 16 15 16 16 15 18 19 21 25 26 27 30 31 34 39 43 45 45 42 38 38 40 42 43 43 43 42 41 40 39 38 37 36 34 33 34
17 18 18 17 20 22 16 10 13 13 12 12 11 11 11 13 12 10 13 14 12 10 8 8 12 14 15 16 15 16 13 14 18 20 21 24 26 27 29 31 32 38 45 47 46 42 38 37 39 41 43 43 42 41 41 39 38 39 39 36 36 37 37
16 14 14 13 15 21 20 14 11 12 11 11 12 11 9 11 12 10 13 14 11 10 10 11 11 11 12 12 14 13 10 11 16 18 19 22 25 27 29 31 32 36 43 46 44 42 39 37 38 41 41 41 41 39 39 39 38 38 38 37 37 39 39
16 12 13 16 15 16 16 15 13 12 11 10 11 13 11 11 11 10 11 12 9 8 10 13 15 13 12 12 13 12 10 13 16 17 18 20 23 27 29 31 33 35 39 43 43 42 39 36 36 39 39 38 38 37 37 39 38 37 37 38 39 41 40
13 13 15 20 21 17 15 14 14 14 12 10 12 15 14 13 12 11 11 11 9 8 7 9 13 14 13 14 15 14 15 18 17 14 16 19 22 27 30 32 34 34 36 39 41 40 39 37 36 38 38 36 36 36 35 35 36 37 35 35 40 43 41
11 14 16 19 23 23 19 15 15 16 14 12 13 13 13 14 15 14 13 13 11 7 4 6 11 13 13 14 13 12 15 19 16 12 13 17 21 25 28 30 32 33 33 34 37 38 39 39 38 38 39 37 35 35 33 32 34 36 35 33 37 43 43
9 13 15 17 20 21 19 16 16 17 17 17 16 14 12 13 15 14 13 14 12 6 4 3 8 9 9 12 12 13 15 15 14 13 12 15 18 20 24 26 28 30 30 31 34 36 39 42 43 42 41 38 35 33 32 32 31 33 34 33 34 41 47
9 11 12 14 16 15 13 15 18 19 22 23 20 16 12 13 18 19 16 13 12 9 6 5 8 7 7 10 13 16 17 15 15 14 11 13 16 18 21 23 25 27 28 31 35 37 40 44 47 47 45 41 37 33 32 31 30 30 33 34 33 37 43
11 11 11 11 12 12 11 15 20 23 26 26 20 14 13 14 17 20 17 13 13 15 14 14 15 13 12 14 15 14 15 16 17 13 11 13 15 16 19 21 24 25 27 31 36 40 42 45 47 48 48 46 41 37 35 32 30 30 31 33 33 32 35
12 11 11 11 12 13 14 18 23 24 25 26 21 14 14 14 13 15 15 14 17 20 18 17 16 15 15 17 16 14 13 14 14 12 14 15 13 14 17 20 22 25 27 31 36 41 43 44 44 45 47 47 44 42 41 37 33 33 33 31 30 33 38
18 16 14 15 15 16 17 19 23 24 24 26 24 20 19 16 14 15 13 12 19 23 20 18 16 13 13 15 16 18 19 20 19 15 16 17 14 13 16 20 24 26 28 31 36 39 40 41 42 42 42 42 43 44 45 42 38 38 37 32 32 38 41
21 21 20 20 18 17 17 18 21 23 24 26 26 25 24 20 17 16 13 14 20 23 22 22 18 14 14 14 16 22 24 26 24 16 14 16 16 16 18 23 27 29 29 32 35 37 38 39 40 40 39 39 40 41 42 42 41 39 37 35 36 36 34
19 22 22 22 23 20 19 20 21 22 24 27 26 25 26 25 23 22 19 18 20 20 21 23 23 22 22 20 21 24 24 25 26 18 14 15 16 18 21 24 29 33 34 35 35 36 37 38 39 40 40 40 39 39 38 38 39 37 33 32 30 26 24
16 21 23 24 25 24 23 23 23 23 24 26 26 24 24 24 24 25 26 23 19 16 16 19 23 24 25 24 23 22 21 26 29 23 16 15 16 19 23 26 29 32 34 35 35 37 38 39 39 40 39 38 36 35 34 33 33 32 28 27 24 19 19
11 16 22 25 25 25 25 25 24 25 24 22 22 21 21 21 21 23 24 22 17 14 14 17 20 20 20 21 21 22 24 28 27 20 14 13 15 16 19 23 26 30 34 36 38 39 37 37 38 38 36 34 33 31 28 26 25 24 23 22 19 18 21
8 11 16 20 21 21 21 20 22 24 23 22 22 21 21 22 20 18 18 17 14 14 16 18 19 20 21 21 22 24 22 18 15 13 11 11 11 11 13 17 22 27 28 30 33 33 30 30 32 32 29 28 28 27 24 22 20 18 18 18 17 20 24
7 9 10 12 13 14 13 14 19 23 24 25 24 23 23 22 18 15 13 12 14 16 17 17 17 17 17 18 19 19 17 12 10 11 10 10 9 10 11 14 19 24 24 23 26 28 25 25 25 23 22 21 22 22 21 21 19 17 16 16 17 21 24
7 6 8 10 11 12 12 12 16 21 23 24 25 25 25 24 22 20 18 16 15 13 13 13 13 11 9 9 12 14 15 15 14 11 10 11 11 11 12 14 18 23 25 25 27 27 24 23 22 20 19 18 17 18 17 17 17 16 16 16 17 18 19
6 6 8 10 9 10 14 13 13 16 19 21 22 23 23 23 23 21 20 19 17 14 13 11 8 6 5 6 11 14 15 16 15 11 10 11 13 15 16 17 19 21 23 26 29 29 26 24 22 21 20 19 18 19 18 18 18 17 15 15 15 13 13
6 6 8 8 8 12 15 11 6 7 9 11 12 15 17 20 21 20 18 19 19 18 16 10 7 6 6 6 10 13 13 13 14 13 10 10 12 14 16 17 19 21 22 25 27 27 27 27 27 27 26 24 24 24 23 22 21 19 17 16 14 13 13
5 6 6 6 9 11 9 3 6 7 8 9 8 9 13 15 17 19 18 18 19 17 13 10 9 7 6 8 9 10 10 9 10 12 12 12 12 14 16 18 19 21 23 24 26 27 29 31 33 33 32 31 29 28 26 23 22 20 18 16 14 13 13
8 8 6 5 8 6 2 7 10 10 10 10 6 8 14 13 14 18 18 18 19 16 12 11 11 8 9 11 7 7 6 6 7 10 12 13 13 15 17 19 21 23 25 29 31 30 31 34 37 36 35 33 31 28 25 23 21 20 19 16 15 14 12
10 10 7 5 6 4 5 9 11 12 12 8 5 11 12 9 14 18 17 17 16 14 13 13 11 9 10 7 4 7 6 6 8 10 12 15 16 17 19 22 27 31 34 34 33 32 34 37 37 35 33 31 28 25 24 22 20 19 18 16 15 15 15
10 11 9 7 6 2 6 12 13 11 9 6 9 10 5 2 7 12 15 16 14 14 16 14 9 5 3 2 8 10 10 11 12 12 14 16 17 19 24 30 35 37 38 37 34 34 36 36 33 32 30 28 26 24 23 21 20 19 17 16 15 15 16
10 9 8 8 5 3 9 15 13 6 6 6 5 4 6 5 3 6 11 14 14 14 14 11 9 9 8 10 13 14 15 17 18 17 18 20 22 27 33 37 36 35 36 37 35 34 34 31 30 29 27 26 24 22 21 19 18 18 16 14 15 16 16
7 8 7 7 5 4 12 14 8 3 4 4 5 7 6 3 3 4 7 11 15 18 18 18 17 17 17 17 20 22 23 24 25 24 25 28 31 34 36 34 31 30 32 34 33 31 30 28 27 25 23 22 21 18 16 14 13 14 14 15 16 17 18
7 9 7 3 0 5 11 10 5 4 6 6 7 5 4 9 9 10 13 16 19 23 25 25 23 22 23 23 24 27 28 29 29 29 30 32 31 30 29 27 25 27 30 30 29 28 26 25 23 20 16 14 14 13 13 11 11 13 15 16 18 18 18
3 4 4 6 6 6 8 6 5 5 5 5 5 4 8 12 12 13 17 18 19 21 24 26 25 24 23 23 24 26 26 26 27 28 27 27 26 25 25 24 22 22 24 24 23 21 20 19 18 16 12 10 11 12 12 11 11 14 16 17 19 19 19
4 5 7 9 9 7 6 6 5 5 5 7 8 9 11 13 13 15 16 18 19 18 19 23 25 24 23 23 23 23 24 24 26 28 27 25 23 23 24 25 22 19 19 20 19 17 16 14 13 12 11 10 8 9 10 9 11 15 17 18 18 18 18
5 4 6 9 10 8 8 5 4 8 11 12 13 12 13 14 15 17 17 17 18 18 18 21 24 25 26 26 24 22 23 23 24 27 27 25 23 22 23 24 23 19 18 18 16 14 13 11 9 8 9 9 9 9 10 12 16 19 19 17 18 17 16
5 5 8 13 14 12 12 8 8 11 14 15 16 15 15 17 19 20 20 19 19 19 20 21 23 25 26 26 25 24 23 22 22 24 25 23 23 22 21 21 21 19 17 15 12 11 10 9 8 8 8 10 11 12 13 16 19 21 20 18 17 16 15
6 8 10 13 14 10 11 12 13 15 16 16 17 18 18 19 21 22 23 23 23 22 22 23 27 28 26 25 26 25 23 22 21 22 22 22 21 21 20 18 18 17 15 13 10 9 9 9 9 10 11 12 13 14 15 16 17 19 20 17 15 15 14
6 7 8 11 11 6 5 10 14 15 15 15 18 21 21 20 20 21 23 25 25 25 25 26 28 28 25 25 26 25 23 22 21 20 20 21 20 19 19 18 16 14 13 11 10 9 9 9 10 11 12 13 14 14 14 14 15 16 17 15 15 15 14
5 10 12 14 15 10 7 9 13 14 13 14 17 21 22 21 20 21 21 22 23 24 23 23 23 24 23 22 24 24 22 21 20 19 19 19 18 17 17 16 15 13 11 10 8 8 8 9 9 10 12 13 14 13 12 13 14 15 15 16 16 16 14
5 13 15 18 20 16 10 12 15 16 16 18 20 22 22 21 20 20 20 20 19 19 19 19 19 19 19 20 21 20 18 17 17 17 16 16 15 14 14 14 14 12 10 8 6 5 6 7 8 9 10 11 13 12 12 13 13 14 15 18 18 17 16
9 17 18 20 23 22 19 19 19 17 16 19 21 20 19 19 17 16 17 16 15 15 16 16 16 16 17 17 17 16 14 13 12 12 12 12 12 11 10 10 10 9 7 5 4 5 6 6 6 7 8 9 11 12 13 14 15 16 17 18 18 17 17
Wind_Direction
201 200 202 204 208 203 193 205 217 220 220 228 235 234 242 248 239 229 213 214 228 236 242 233 230 237 234 229 231 236 236 220 207 207 204 203 202 200 199 197 195 196 200 206 210 210 208 211 212 211 211 214 215 214 217 219 218 217 218 218 217 219 222
202 199 201 204 214 218 201 203 210 213 221 233 240 231 227 231 234 234 223 222 227 228 231 230 231 236 238 237 239 241 238 219 208 208 203 202 203 200 199 197 196 199 205 210 213 210 208 208 210 213 214 216 217 217 218 220 219 218 217 218 219 221 223
197 192 204 206 210 217 222 218 203 204 215 219 226 231 227 225 228 235 233 230 232 231 228 221 217 224 231 233 235 237 230 214 212 213 204 201 201 199 199 197 195 199 207 211 212 208 207 207 210 214 216 218 219 219 219 220 220 220 218 219 222 225 227
196 191 206 210 200 207 222 230 211 209 221 216 216 224 231 234 232 231 233 232 229 229 235 233 221 220 229 232 233 232 220 212 216 212 205 202 199 197 198 198 195 199 207 210 210 208 206 206 210 214 216 217 218 219 220 220 220 221 220 220 225 228 228
201 198 202 211 206 196 207 219 216 213 215 215 223 222 221 232 238 236 236 235 227 217 224 232 234 235 238 243 247 244 240 239 232 219 206 198 196 197 197 197 197 201 206 207 207 208 206 204 208 213 214 215 216 216 219 220 219 219 220 221 225 228 229
205 210 201 209 215 211 204 205 212 218 211 207 222 224 220 225 232 237 242 242 237 223 199 206 230 239 235 236 241 240 242 245 242 228 209 196 194 198 196 197 199 201 205 206 205 205 204 203 205 210 212 212 213 214 214 216 216 216 217 218 224 228 229
211 215 208 208 215 220 220 212 209 217 216 214 221 222 220 224 227 232 241 243 239 230 172 182 221 229 230 238 245 245 244 244 244 240 220 200 195 197 197 198 201 201 203 205 202 201 202 202 203 208 211 211 211 212 211 211 214 215 214 214 222 229 229
218 217 217 214 212 216 224 221 213 215 216 218 226 226 223 229 228 225 234 238 231 207 127 174 225 218 225 244 252 252 251 249 244 233 214 200 197 198 200 201 202 201 201 201 200 199 199 202 205 209 213 212 210 210 210 210 211 214 214 212 218 228 231
217 214 216 210 204 208 223 225 219 219 218 218 225 226 224 232 229 225 231 234 226 211 182 199 226 226 241 255 252 246 245 251 249 233 213 211 208 200 200 201 200 200 199 198 198 198 200 205 210 213 215 215 212 209 208 209 210 211 213 212 213 225 233
211 210 212 207 201 203 218 226 224 224 221 219 222 222 223 230 225 225 234 235 227 225 217 217 228 235 250 262 264 254 243 244 245 231 218 222 216 204 199 196 195 195 195 196 197 200 205 210 212 214 216 217 215 213 211 209 209 209 212 215 213 217 229
222 219 216 214 214 211 214 218 222 226 225 223 225 223 226 230 222 225 238 241 237 230 218 217 224 226 237 249 258 267 265 259 252 236 227 225 216 208 200 191 190 190 191 195 199 204 209 212 214 215 217 218 217 218 219 217 215 216 216 214 208 216 227
232 234 228 224 224 224 222 219 219 222 224 225 227 228 229 230 229 230 225 225 239 239 228 225 220 212 227 239 246 257 264 267 265 249 232 227 215 204 197 192 192 190 190 197 202 207 210 212 214 216 217 218 218 222 225 225 224 224 223 217 215 223 227
233 236 235 233 233 232 232 230 226 223 221 224 230 232 232 231 235 239 220 205 226 236 234 235 231 225 235 239 241 247 251 259 264 248 219 218 211 198 197 200 202 199 196 199 203 207 210 210 212 214 216 218 220 223 226 228 228 229 227 224 225 226 222
240 240 240 239 239 236 234 235 235 232 226 225 228 232 234 234 237 243 237 224 224 228 229 235 239 242 248 249 245 246 248 258 265 255 229 221 210 202 208 211 209 207 206 205 205 207 208 209 211 213 215 217 219 221 223 226 228 229 226 222 221 215 213
241 239 241 240 240 239 236 233 233 236 235 231 229 229 230 234 237 239 240 239 235 229 227 235 239 240 247 250 246 244 246 251 256 255 245 234 217 211 218 218 211 209 208 208 208 208 209 211 212 213 214 215 216 217 218 221 225 224 219 214 211 200 204
237 234 234 235 238 240 239 235 230 230 234 235 234 231 227 228 231 232 235 239 239 230 227 235 237 234 240 246 245 243 242 244 248 253 255 250 235 221 218 214 208 207 207 207 209 209 208 208 209 210 211 212 212 210 209 211 213 213 210 206 201 194 204
242 241 236 234 237 238 236 233 229 228 231 233 236 236 233 230 229 228 231 234 234 232 230 232 232 230 234 238 238 240 240 239 246 255 262 262 249 228 213 206 204 204 202 201 203 203 200 199 202 204 203 204 205 201 197 196 193 196 201 196 189 194 206
245 251 251 245 240 239 237 230 226 227 230 231 233 234 232 231 231 237 244 240 231 226 222 223 226 228 230 229 229 233 238 242 252 256 255 249 237 224 214 205 204 203 197 194 198 196 191 190 192 191 189 194 198 196 195 196 192 191 193 182 179 194 207
241 245 249 244 236 237 244 243 235 231 230 233 238 237 234 230 229 232 240 243 239 230 222 221 223 224 224 226 231 234 240 246 250 250 244 231 216 209 206 199 199 199 194 191 191 187 182 182 181 178 178 184 188 184 184 185 181 183 186 179 178 194 209
238 237 234 239 249 254 252 253 252 243 233 232 237 239 236 232 231 230 230 233 237 240 238 229 213 202 207 229 241 243 245 247 244 239 235 224 211 206 203 202 206 204 195 192 191 187 182 177 170 164 162 162 163 163 161 159 157 159 170 177 179 191 208
229 239 239 249 273 266 249 245 258 264 257 252 249 247 240 234 231 230 228 227 229 233 233 218 185 183 206 235 241 235 234 237 232 225 219 208 200 196 196 204 211 205 196 195 195 188 177 165 156 152 152 152 153 150 146 143 143 146 155 167 175 186 202
220 239 250 256 262 256 245 274 7 359 333 328 317 267 245 236 230 227 226 227 227 226 217 193 171 174 214 243 234 211 209 220 219 212 206 196 185 178 181 192 197 192 187 181 175 169 163 155 149 148 148 147 146 144 141 142 144 149 155 162 167 177 190
218 226 236 242 251 258 354 9 357 350 338 343 339 254 239 231 220 219 223 226 223 217 204 185 172 182 226 240 215 168 173 191 187 187 188 183 174 169 171 175 174 172 169 161 156 157 155 147 143 143 142 141 141 141 143 145 148 151 153 155 158 162 165
213 221 229 236 249 268 19 3 340 332 331 330 267 236 236 214 194 199 209 217 212 203 196 189 183 202 235 239 156 134 150 158 158 164 164 161 159 158 159 160 158 155 153 150 149 150 146 140 137 137 136 135 135 137 139 141 143 147 148 148 149 147 143
209 216 223 238 253 272 12 346 331 324 315 280 230 234 269 270 196 192 196 201 196 189 193 193 188 196 220 123 119 130 137 133 133 140 144 144 144 145 147 149 147 143 142 141 140 139 136 133 132 131 131 131 132 132 132 132 134 139 143 144 144 141 138
213 215 221 243 252 50 13 336 319 297 262 247 243 293 332 324 246 200 192 190 181 174 174 163 140 132 124 119 123 125 126 124 121 123 126 125 126 130 134 135 134 132 133 133 132 130 129 127 126 126 127 127 126 126 126 127 128 130 135 142 149 149 146
200 202 211 235 230 39 4 334 309 273 267 292 337 342 350 29 90 131 144 146 141 135 127 119 117 117 110 109 113 114 113 112 109 109 113 114 115 119 123 124 123 125 128 128 127 127 125 123 123 123 123 122 121 122 122 122 125 131 137 147 158 161 159
196 201 197 195 132 10 354 337 313 313 329 343 342 338 60 78 79 88 95 102 111 116 116 116 115 109 102 101 104 106 105 103 100 101 106 110 112 113 115 115 115 119 124 125 125 125 125 126 127 126 122 119 120 124 128 131 142 151 153 158 165 168 165
195 198 153 92 63 21 353 339 321 318 337 7 10 45 87 84 81 83 85 89 97 105 111 112 107 100 96 95 96 97 97 96 96 97 100 105 108 108 108 108 106 111 118 121 120 119 119 120 121 118 111 106 114 130 140 146 159 167 169 171 172 171 167
102 79 86 84 72 39 358 341 342 355 17 37 49 64 71 69 71 73 75 81 86 89 95 98 96 91 87 83 83 86 87 87 90 93 95 95 97 99 102 104 102 103 110 114 114 113 111 108 107 109 109 109 121 140 147 158 179 186 186 184 180 174 169
156 134 99 85 75 40 357 343 18 30 33 41 50 57 60 62 66 66 66 72 77 75 76 82 87 87 85 82 79 79 82 86 92 97 97 96 96 97 99 101 100 100 103 106 107 109 112 114 115 118 123 133 151 162 166 180 192 193 189 185 181 174 166
153 122 99 88 76 44 13 15 33 27 26 35 45 55 64 67 67 66 67 68 69 67 66 71 77 78 79 81 81 79 78 81 89 98 101 101 100 99 98 97 97 97 98 97 98 105 114 123 133 141 147 154 164 172 180 189 192 189 184 178 172 165 159
119 96 100 97 86 51 13 17 24 21 23 32 43 54 61 64 66 67 67 66 64 61 60 68 75 75 71 75 84 85 79 76 80 90 97 101 102 102 100 98 97 98 97 91 89 102 116 126 139 148 154 159 165 170 174 178 178 176 171 164 157 155 154
150 130 136 122 109 91 25 21 20 18 25 39 50 53 52 53 61 67 66 66 64 60 58 63 71 71 67 71 80 82 79 78 80 85 93 98 100 102 103 102 101 101 99 94 94 109 120 128 138 144 147 152 156 160 161 160 159 159 155 148 147 149 149
133 128 134 127 116 110 94 73 58 46 43 51 61 63 56 51 54 60 63 64 62 60 59 59 62 63 61 66 74 74 72 74 77 82 90 94 94 97 104 108 107 104 101 99 102 114 122 126 132 136 140 145 148 152 152 147 146 147 143 140 142 142 143
106 116 123 124 118 115 119 112 95 79 67 64 68 71 69 66 62 60 62 63 61 63 63 60 61 62 60 61 67 68 66 66 67 72 81 87 88 92 103 111 113 110 108 106 110 120 124 122 121 125 133 139 141 144 144 139 139 141 138 137 139 140 146
122 116 115 115 112 114 124 122 109 97 86 77 74 72 72 75 76 73 69 65 60 62 64 60 60 62 61 59 60 59 56 55 55 61 71 80 87 94 102 110 115 116 119 126 140 139 131 124 121 121 123 128 134 140 143 142 142 143 140 138 138 141 147
Height
1428 1432 1432 1429 1437 1446 1448 1449 1453 1449 1444 1451 1463 1466 1461 1464 1475 1468 1459 1466 1460 1450 1446 1438 1437 1440 1436 1437 1438 1437 1439 1441 1444 1446 1447 1450 1452 1455 1458 1461 1464 1468 1473 1476 1479 1483 1486 1489 1493 1495 1498 1500 1503 1506 1509 1511 1515 1518 1520 1522 1524 1526 1528
1427 1426 1430 1428 1428 1432 1441 1449 1446 1440 1442 1447 1454 1466 1468 1473 1481 1467 1454 1463 1462 1459 1457 1441 1435 1441 1438 1435 1434 1432 1433 1437 1440 1440 1442 1445 1447 1451 1454 1457 1460 1463 1466 1470 1473 1478 1481 1484 1488 1491 1494 1497 1499 1503 1505 1508 1511 1513 1516 1518 1520 1522 1524
1427 1424 1431 1434 1428 1425 1431 1434 1431 1437 1454 1459 1456 1463 1469 1473 1480 1471 1458 1457 1456 1455 1451 1440 1437 1440 1436 1433 1431 1429 1429 1432 1435 1436 1438 1441 1443 1447 1451 1453 1457 1459 1461 1465 1468 1473 1478 1481 1484 1487 1490 1494 1496 1499 1502 1505 1508 1510 1512 1515 1516 1518 1519
1426 1426 1431 1436 1433 1428 1428 1427 1427 1433 1443 1450 1452 1455 1459 1464 1470 1470 1465 1459 1452 1445 1438 1435 1436 1434 1431 1431 1429 1425 1425 1428 1431 1432 1434 1437 1440 1443 1446 1449 1452 1454 1457 1461 1465 1469 1473 1477 1481 1484 1488 1491 1493 1496 1499 1501 1504 1507 1509 1511 1512 1514 1516
1425 1428 1426 1427 1427 1429 1432 1434 1436 1435 1432 1437 1444 1444 1445 1454 1462 1465 1464 1460 1447 1432 1426 1428 1429 1428 1428 1428 1427 1424 1422 1424 1427 1429 1430 1433 1436 1438 1441 1444 1447 1449 1452 1456 1461 1465 1470 1475 1478 1480 1484 1487 1490 1493 1495 1497 1501 1503 1505 1507 1509 1510 1512
1426 1422 1415 1415 1418 1419 1424 1430 1434 1433 1431 1438 1450 1449 1440 1442 1451 1454 1456 1458 1444 1420 1413 1420 1424 1423 1422 1422 1423 1422 1421 1421 1423 1425 1428 1429 1431 1434 1436 1439 1442 1445 1448 1452 1456 1461 1466 1470 1473 1476 1480 1483 1486 1489 1491 1494 1497 1499 1502 1504 1505 1507 1509
1419 1414 1407 1409 1412 1411 1414 1419 1423 1426 1427 1433 1445 1450 1445 1439 1439 1440 1445 1452 1440 1414 1407 1416 1419 1418 1417 1417 1418 1418 1419 1420 1420 1424 1427 1427 1428 1430 1432 1436 1438 1441 1445 1449 1453 1458 1461 1464 1468 1472 1475 1479 1482 1485 1488 1491 1493 1495 1498 1501 1502 1504 1506
1413 1409 1405 1405 1406 1410 1415 1414 1413 1417 1421 1424 1427 1432 1438 1438 1436 1439 1447 1451 1437 1414 1408 1415 1415 1414 1415 1415 1416 1418 1419 1420 1421 1424 1426 1425 1426 1428 1430 1433 1435 1438 1442 1446 1450 1453 1455 1459 1463 1467 1471 1474 1478 1482 1485 1488 1489 1492 1495 1498 1500 1500 1502
1429 1424 1419 1413 1409 1412 1416 1412 1409 1410 1412 1417 1420 1422 1431 1435 1431 1434 1444 1446 1434 1416 1410 1414 1414 1414 1415 1414 1415 1417 1417 1419 1421 1422 1422 1422 1423 1425 1427 1430 1433 1435 1439 1441 1445 1448 1450 1453 1458 1462 1466 1470 1474 1477 1480 1483 1486 1489 1491 1494 1497 1498 1499
1440 1437 1428 1419 1413 1413 1414 1411 1409 1408 1407 1412 1418 1422 1431 1433 1427 1428 1432 1433 1428 1416 1411 1414 1414 1414 1416 1414 1412 1413 1414 1416 1417 1418 1419 1419 1420 1423 1425 1427 1429 1432 1435 1438 1440 1443 1446 1449 1453 1458 1462 1465 1469 1473 1476 1479 1483 1485 1487 1490 1494 1496 1497
1420 1420 1415 1407 1406 1411 1414 1413 1411 1409 1406 1407 1413 1420 1425 1423 1423 1428 1425 1422 1424 1418 1412 1415 1413 1413 1417 1415 1411 1411 1412 1413 1414 1415 1416 1417 1418 1420 1423 1425 1427 1429 1432 1434 1436 1439 1442 1446 1450 1453 1457 1461 1465 1468 1471 1475 1478 1481 1483 1487 1490 1492 1493
1406 1405 1404 1401 1402 1406 1408 1409 1409 1408 1406 1406 1410 1413 1412 1413 1422 1428 1421 1418 1424 1419 1410 1411 1410 1411 1414 1413 1410 1411 1412 1413 1414 1414 1414 1414 1416 1418 1420 1422 1424 1426 1429 1431 1433 1436 1440 1444 1447 1450 1453 1457 1460 1463 1466 1470 1474 1476 1479 1482 1485 1486 1489
1403 1400 1400 1399 1400 1401 1402 1403 1404 1404 1404 1406 1407 1405 1403 1407 1416 1419 1413 1414 1420 1417 1409 1407 1404 1405 1407 1407 1408 1410 1410 1411 1411 1411 1411 1412 1413 1414 1416 1418 1419 1422 1425 1427 1430 1433 1437 1441 1444 1446 1450 1453 1456 1459 1463 1466 1469 1472 1475 1478 1480 1483 1487
1404 1401 1399 1397 1397 1399 1400 1400 1400 1400 1400 1401 1402 1401 1401 1403 1406 1406 1406 1410 1411 1408 1404 1402 1399 1399 1401 1402 1404 1406 1407 1409 1409 1410 1409 1409 1410 1411 1412 1414 1416 1418 1420 1423 1427 1430 1433 1437 1439 1442 1446 1449 1452 1456 1459 1462 1466 1468 1471 1474 1477 1480 1483
1407 1402 1399 1397 1396 1397 1398 1398 1397 1397 1397 1396 1396 1397 1398 1401 1403 1401 1403 1407 1406 1398 1395 1396 1395 1396 1399 1400 1400 1402 1405 1407 1408 1407 1406 1405 1407 1408 1408 1410 1413 1415 1417 1420 1423 1426 1429 1432 1435 1438 1442 1445 1449 1453 1456 1459 1461 1464 1468 1470 1473 1477 1479
1409 1399 1398 1399 1395 1394 1395 1394 1393 1394 1395 1395 1392 1391 1391 1395 1399 1402 1404 1405 1401 1394 1392 1393 1392 1393 1397 1398 1397 1399 1403 1404 1405 1403 1403 1403 1405 1405 1406 1408 1409 1412 1414 1415 1418 1421 1425 1429 1432 1435 1439 1442 1446 1449 1452 1455 1458 1461 1464 1467 1470 1474 1476
1408 1397 1395 1395 1396 1402 1400 1390 1386 1388 1389 1390 1389 1386 1384 1384 1388 1396 1399 1395 1390 1388 1389 1391 1390 1391 1394 1394 1394 1398 1400 1400 1401 1400 1401 1403 1403 1405 1406 1406 1407 1410 1412 1413 1415 1419 1423 1427 1430 1433 1437 1439 1442 1446 1449 1452 1455 1458 1461 1464 1468 1470 1471
1411 1401 1394 1396 1408 1414 1398 1377 1372 1378 1380 1383 1386 1384 1381 1379 1380 1383 1384 1382 1382 1383 1384 1386 1388 1388 1389 1390 1392 1395 1396 1396 1397 1398 1399 1401 1402 1403 1405 1405 1405 1407 1410 1412 1414 1417 1421 1425 1428 1431 1434 1437 1440 1443 1446 1449 1452 1455 1457 1461 1464 1465 1466
1408 1400 1402 1416 1422 1407 1383 1369 1367 1369 1371 1374 1378 1378 1375 1374 1376 1378 1380 1380 1379 1378 1378 1380 1383 1385 1387 1389 1390 1392 1393 1393 1394 1396 1398 1399 1400 1401 1403 1404 1404 1404 1406 1408 1410 1413 1418 1421 1425 1428 1431 1435 1438 1441 1444 1447 1449 1452 1454 1457 1460 1461 1462
1406 1407 1414 1423 1414 1390 1376 1374 1370 1367 1369 1372 1377 1379 1374 1369 1371 1374 1377 1379 1378 1377 1377 1379 1382 1385 1387 1389 1389 1389 1391 1391 1391 1394 1396 1396 1397 1398 1399 1400 1401 1402 1403 1405 1407 1410 1414 1417 1421 1424 1428 1433 1436 1440 1443 1445 1447 1449 1452 1454 1456 1457 1458
1406 1411 1412 1408 1402 1393 1385 1380 1375 1374 1375 1374 1377 1380 1374 1365 1365 1368 1372 1375 1376 1375 1376 1379 1382 1385 1387 1388 1387 1386 1388 1389 1389 1391 1393 1394 1395 1395 1396 1398 1399 1399 1401 1403 1405 1409 1412 1414 1417 1421 1425 1430 1434 1437 1440 1443 1445 1447 1449 1451 1452 1453 1455
1402 1410 1414 1413 1414 1407 1392 1383 1379 1377 1378 1376 1375 1379 1376 1365 1360 1363 1366 1371 1373 1373 1375 1379 1381 1385 1390 1390 1385 1383 1386 1386 1386 1388 1390 1391 1392 1392 1393 1395 1396 1397 1398 1400 1403 1408 1412 1413 1414 1417 1422 1426 1430 1434 1437 1440 1442 1445 1446 1448 1450 1451 1453
1401 1408 1417 1420 1419 1406 1392 1388 1385 1380 1380 1377 1376 1384 1381 1366 1359 1362 1365 1368 1370 1370 1374 1378 1380 1386 1393 1388 1380 1380 1384 1384 1384 1386 1387 1388 1389 1390 1390 1391 1393 1394 1396 1399 1402 1407 1411 1412 1413 1416 1420 1423 1428 1431 1434 1437 1440 1442 1445 1447 1449 1450 1451
1400 1406 1411 1412 1408 1399 1392 1391 1387 1383 1380 1379 1387 1397 1385 1362 1356 1362 1363 1364 1367 1368 1372 1376 1378 1383 1386 1381 1376 1379 1382 1382 1383 1385 1385 1386 1386 1387 1388 1389 1390 1392 1395 1399 1403 1408 1411 1411 1413 1416 1420 1423 1427 1430 1433 1436 1438 1440 1443 1446 1448 1449 1450
1399 1404 1408 1406 1399 1393 1392 1391 1387 1383 1382 1384 1392 1394 1378 1362 1360 1362 1361 1363 1365 1367 1370 1373 1375 1378 1379 1377 1377 1379 1380 1381 1383 1384 1385 1385 1385 1386 1388 1388 1389 1392 1396 1400 1404 1408 1410 1412 1414 1417 1420 1423 1426 1430 1432 1434 1435 1437 1440 1444 1446 1447 1448
1395 1398 1402 1406 1400 1392 1392 1392 1386 1384 1388 1391 1387 1379 1371 1368 1367 1363 1362 1363 1363 1366 1369 1372 1375 1378 1379 1378 1378 1379 1380 1381 1382 1384 1385 1385 1385 1387 1388 1390 1392 1395 1398 1402 1405 1408 1410 1412 1414 1417 1420 1423 1426 1428 1431 1433 1434 1434 1436 1440 1442 1444 1445
1393 1399 1405 1411 1407 1396 1392 1393 1389 1387 1390 1390 1382 1375 1373 1371 1369 1367 1366 1364 1363 1367 1370 1373 1378 1380 1379 1379 1379 1379 1381 1381 1382 1384 1385 1385 1387 1389 1391 1394 1397 1398 1401 1404 1407 1409 1411 1413 1415 1417 1419 1421 1424 1427 1429 1431 1433 1433 1433 1435 1437 1439 1441
1388 1396 1400 1401 1398 1392 1391 1395 1393 1391 1390 1387 1382 1379 1376 1374 1375 1374 1371 1369 1369 1370 1372 1375 1379 1380 1380 1382 1382 1381 1382 1383 1383 1386 1387 1389 1391 1393 1396 1399 1400 1402 1403 1405 1407 1410 1412 1414 1416 1418 1419 1419 1420 1423 1427 1430 1432 1433 1432 1433 1434 1436 1438
1379 1382 1385 1385 1386 1389 1393 1396 1394 1391 1390 1388 1384 1381 1378 1378 1380 1379 1376 1376 1376 1376 1377 1378 1378 1380 1381 1383 1384 1384 1385 1385 1386 1388 1390 1392 1394 1396 1398 1400 1402 1404 1406 1407 1409 1411 1412 1414 1416 1418 1419 1419 1419 1421 1424 1428 1432 1433 1433 1432 1432 1433 1436
1377 1380 1382 1382 1385 1391 1394 1396 1395 1393 1390 1388 1385 1383 1382 1382 1382 1381 1381 1381 1381 1382 1382 1379 1378 1380 1382 1383 1385 1386 1387 1388 1389 1390 1392 1394 1397 1399 1400 1401 1403 1405 1407 1408 1410 1412 1413 1415 1416 1418 1419 1419 1420 1421 1422 1425 1430 1433 1432 1430 1430 1432 1435
1381 1386 1386 1383 1387 1395 1397 1396 1395 1393 1391 1389 1387 1386 1385 1385 1384 1383 1384 1384 1385 1387 1386 1383 1381 1382 1382 1383 1386 1389 1390 1392 1393 1393 1394 1396 1398 1401 1402 1403 1405 1406 1408 1410 1412 1413 1414 1416 1417 1418 1418 1418 1419 1421 1422 1423 1427 1430 1430 1429 1430 1432 1435
1380 1385 1386 1385 1390 1397 1399 1399 1398 1395 1394 1392 1389 1389 1389 1388 1387 1387 1387 1389 1390 1389 1389 1387 1385 1384 1384 1386 1388 1391 1394 1396 1396 1396 1397 1399 1400 1402 1404 1405 1406 1408 1409 1411 1413 1414 1415 1416 1417 1418 1418 1418 1419 1420 1422 1423 1425 1427 1427 1428 1430 1432 1436
1382 1386 1387 1387 1393 1400 1402 1402 1401 1398 1397 1395 1393 1392 1392 1391 1391 1391 1391 1392 1393 1392 1392 1390 1388 1388 1389 1389 1389 1394 1397 1399 1399 1400 1400 1401 1402 1404 1405 1406 1408 1410 1411 1412 1414 1415 1416 1417 1418 1418 1418 1419 1419 1420 1421 1422 1422 1423 1424 1426 1429 1432 1435
1383 1387 1387 1388 1395 1403 1407 1406 1404 1401 1400 1399 1396 1394 1394 1395 1396 1396 1396 1396 1396 1395 1395 1394 1393 1394 1395 1394 1394 1397 1400 1401 1402 1402 1402 1403 1404 1405 1406 1408 1409 1411 1412 1413 1415 1417 1418 1419 1419 1419 1419 1419 1419 1419 1419 1419 1419 1420 1422 1425 1429 1432 1434
1383 1384 1387 1389 1394 1402 1408 1408 1406 1405 1403 1402 1401 1399 1399 1399 1400 1400 1401 1401 1400 1400 1400 1401 1401 1401 1401 1399 1398 1400 1403 1405 1405 1404 1404 1404 1405 1406 1407 1408 1410 1412 1413 1414 1416 1417 1418 1419 1419 1419 1419 1418 1418 1418 1418 1418 1419 1420 1422 1426 1430 1432 1435
1386 1386 1390 1392 1393 1399 1407 1408 1407 1407 1406 1404 1403 1404 1404 1405 1405 1405 1405 1406 1406 1406 1406 1406 1406 1406 1405 1403 1403 1403 1406 1408 1408 1407 1406 1406 1407 1408 1409 1409 1410 1412 1414 1415 1417 1417 1418 1419 1419 1419 1419 1418 1418 1417 1418 1419 1420 1421 1423 1427 1429 1432 1434
1388 1388 1392 1394 1395 1401 1406 1407 1406 1408 1409 1407 1407 1408 1409 1410 1410 1410 1410 1410 1411 1411 1410 1409 1408 1407 1406 1406 1406 1407 1409 1410 1410 1409 1408 1408 1409 1410 1410 1410 1412 1413 1415 1416 1417 1417 1418 1419 1419 1419 1419 1419 1418 1419 1419 1420 1421 1423 1425 1427 1429 1431 1433